This demonstration page uses our WeatherBlox Daily Observations layout. Learn more.

Hourly Observations for July 18, 2015

Temp ( °F °C ) Dew Point ( °F °C ) Humidity (%) Winds ( mph kmh ) Pressure ( in mb ) Visibility ( mi km ) Precip ( " mm )
12:15 am 00:15 Partly Cloudy 70 20.9 61 16.3 75 75 NNE 16 26 29.74 1007 10 16.0934 0 0
12:35 am 00:35 Partly Cloudy 69 20.3 61 16.2 77 77 ENE 16 26 29.74 1007 10 16.0934 0 0
12:55 am 00:55 Clear 68 20.1 61 16.2 78 78 ENE 9 15 29.74 1007 10 16.0934 0 0
1:15 am 01:15 Clear 67 19.7 61 16.2 80 80 E 16 26 29.74 1007 10 16.0934 0 0
1:35 am 01:35 Clear 67 19.5 62 16.5 83 83 E 14 22 29.74 1007 10 16.0934 0 0
1:55 am 01:55 Clear 67 19.2 62 16.6 85 85 ESE 7 11 29.74 1007 10 16.0934 0 0
2:15 am 02:15 Clear 66 19 62 16.6 86 86 NE 8 13 29.74 1007 10 16.0934 0 0
2:35 am 02:35 Clear 65 18.6 62 16.8 89 89 N 13 20 29.8 1009 10 16.0934 0 0
2:55 am 02:55 Partly Cloudy 65 18.5 63 17 91 91 NNE 14 22 29.8 1009 10 16.0934 0 0
3:15 am 03:15 Cloudy 65 18.6 63 17 90 90 NNE 15 24 29.8 1009 10 16.0934 0 0
3:35 am 03:35 Partly Cloudy 65 18.5 63 17 91 91 ENE 13 20 29.8 1009 10 16.0934 0 0
3:55 am 03:55 Clear 65 18.5 63 17 91 91 ENE 13 20 29.77 1008 10 16.0934 0 0
4:15 am 04:15 Clear 65 18.5 63 17 91 91 E 12 19 29.77 1008 10 16.0934 0 0
4:35 am 04:35 Clear 65 18.6 63 17 90 90 E 12 19 29.77 1008 10 16.0934 0 0
4:55 am 04:55 Clear 65 18.6 62 16.8 89 89 E 14 22 29.74 1007 10 16.0934 0 0
5:15 am 05:15 Clear 65 18.5 62 16.7 89 89 E 13 20 29.74 1007 10 16.0934 0 0
5:35 am 05:35 Clear 65 18.6 62 16.6 88 88 ESE 13 20 29.74 1007 10 16.0934 0 0
5:55 am 05:55 Clear 65 18.6 61 16.3 87 87 ESE 9 15 29.77 1008 10 16.0934 0 0
6:15 am 06:15 Clear 65 18.6 61 16.2 86 86 ESE 9 15 29.77 1008 10 16.0934 0 0
6:35 am 06:35 Sunny 65 18.5 61 16.1 86 86 ESE 9 15 29.77 1008 10 16.0934 0 0
6:55 am 06:55 Sunny 65 18.5 61 16 85 85 E 6 9 29.8 1009 10 16.0934 0 0
7:15 am 07:15 Sunny 65 18.5 61 16.2 87 87 ESE 5 7 29.8 1009 10 16.0934 0 0
7:35 am 07:35 Sunny 67 19.2 62 16.5 84 84 E 5 7 29.8 1009 10 16.0934 0 0
7:55 am 07:55 Sunny 67 19.6 62 16.5 82 82 SE 8 13 29.8 1009 10 16.0934 0 0
8:15 am 08:15 Sunny 69 20.3 61 16.3 78 78 ESE 9 15 29.8 1009 10 16.0934 0 0
8:35 am 08:35 Sunny 70 21.1 62 16.5 75 75 SE 6 9 29.8 1009 10 16.0934 0 0
8:55 am 08:55 Sunny 72 22.1 62 16.4 70 70 E 6 9 29.83 1010 10 16.0934 0 0
9:15 am 09:15 Sunny 73 22.9 62 16.8 69 69 E 3 6 29.8 1009 10 16.0934 0 0
9:35 am 09:35 Sunny 74 23.3 62 16.9 67 67 E 3 6 29.8 1009 10 16.0934 0 0
9:55 am 09:55 Sunny 75 24 62 16.9 65 65 ESE 6 9 29.8 1009 10 16.0934 0 0
10:15 am 10:15 Sunny 76 24.4 63 17.1 64 64 E 5 7 29.8 1009 10 16.0934 0 0
10:35 am 10:35 Sunny 76 24.7 64 17.7 65 65 ENE 3 6 29.8 1009 10 16.0934 0 0
10:55 am 10:55 Sunny 77 25.1 64 17.7 64 64 ESE 3 6 29.8 1009 10 16.0934 0 0
11:15 am 11:15 Sunny 78 25.7 65 18.4 64 64 N 3 6 29.77 1008 10 16.0934 0 0
11:35 am 11:35 Sunny 78 25.8 65 18.1 63 63 N 5 7 29.77 1008 10 16.0934 0 0
11:55 am 11:55 Sunny 80 26.5 66 18.8 63 63 N 5 7 29.77 1008 10 16.0934 0 0
12:15 pm 12:15 Sunny 80 26.4 65 18.5 62 62 NNE 5 7 29.77 1008 10 16.0934 0 0
12:35 pm 12:35 Sunny 80 26.8 67 19.2 63 63 NNW 7 11 29.77 1008 10 16.0934 0 0
12:55 pm 12:55 Sunny 81 27 68 19.8 65 65 N 3 6 29.8 1009 10 16.0934 0 0
1:15 pm 13:15 Sunny 81 27.4 67 19.7 63 63 N 9 15 29.8 1009 10 16.0934 0 0
1:35 pm 13:35 Sunny 82 28 68 19.9 61 61 N 7 11 29.8 1009 10 16.0934 0 0
1:55 pm 13:55 Sunny 83 28.5 68 19.8 59 59 N 7 11 29.8 1009 10 16.0934 0 0
2:15 pm 14:15 Sunny 85 29.5 67 19.5 55 55 NNE 8 13 29.77 1008 10 16.0934 0 0
2:35 pm 14:35 Sunny 85 29.7 66 18.8 52 52 NE 9 15 29.77 1008 10 16.0934 0 0
2:55 pm 14:55 Sunny 86 30.1 66 18.9 51 51 NE 12 19 29.77 1008 10 16.0934 0 0
3:15 pm 15:15 Sunny 87 30.4 66 19.1 51 51 NE 12 19 29.77 1008 10 16.0934 0 0
3:35 pm 15:35 Sunny 86 30.1 67 19.2 52 52 ENE 12 19 29.77 1008 10 16.0934 0 0
3:55 pm 15:55 Sunny 87 30.4 66 18.8 50 50 ENE 13 20 29.77 1008 10 16.0934 0 0
4:15 pm 16:15 Sunny 86 29.9 67 19.6 54 54 ENE 13 20 29.77 1008 10 16.0934 0 0
4:35 pm 16:35 Sunny 85 29.7 66 18.8 52 52 ENE 12 19 29.77 1008 10 16.0934 0 0
4:55 pm 16:55 Sunny 85 29.6 67 19.3 54 54 ENE 10 17 29.77 1008 10 16.0934 0 0
5:15 pm 17:15 Sunny 85 29.7 67 19.2 53 53 ENE 9 15 29.77 1008 10 16.0934 0 0
5:35 pm 17:35 Sunny 85 29.5 66 19 53 53 E 10 17 29.77 1008 10 16.0934 0 0
5:55 pm 17:55 Sunny 85 29.5 67 19.7 56 56 E 10 17 29.77 1008 10 16.0934 0 0
6:15 pm 18:15 Sunny 84 29.1 67 19.6 57 57 E 9 15 29.8 1009 10 16.0934 0 0
6:35 pm 18:35 Sunny 84 28.8 66 18.9 55 55 E 9 15 29.8 1009 10 16.0934 0 0
6:55 pm 18:55 Sunny 84 28.7 67 19.4 57 57 E 9 15 29.8 1009 10 16.0934 0 0
7:15 pm 19:15 Sunny 83 28.2 68 19.8 60 60 ENE 8 13 29.8 1009 10 16.0934 0 0
7:35 pm 19:35 Sunny 82 28 68 20 62 62 E 8 13 29.8 1009 10 16.0934 0 0
7:55 pm 19:55 Sunny 82 27.5 68 20.1 64 64 E 7 11 29.8 1009 10 16.0934 0 0
8:15 pm 20:15 Sunny 81 27 70 20.9 69 69 E 6 9 29.8 1009 10 16.0934 0 0
8:35 pm 20:35 Sunny 79 25.9 69 20.3 71 71 E 6 9 29.83 1010 10 16.0934 0 0
8:55 pm 20:55 Sunny 77 25 68 20.2 75 75 ENE 7 11 29.83 1010 10 16.0934 0 0
9:15 pm 21:15 Clear 74 23.6 69 20.7 84 84 ENE 7 11 29.85 1011 10 16.0934 0 0
9:35 pm 21:35 Clear 74 23.1 69 20.5 85 85 ENE 7 11 29.85 1011 10 16.0934 0 0
9:55 pm 21:55 Clear 73 23 69 20.6 86 86 ENE 7 11 29.85 1011 10 16.0934 0 0
10:15 pm 22:15 Clear 73 23 69 20.5 86 86 ENE 6 9 29.85 1011 10 16.0934 0 0
10:35 pm 22:35 Clear 73 22.8 69 20.6 87 87 E 7 11 29.85 1011 10 16.0934 0 0
10:55 pm 22:55 Clear 73 22.9 69 20.5 86 86 ENE 7 11 29.85 1011 10 16.0934 0 0
11:15 pm 23:15 Clear 73 23 69 20.6 86 86 ENE 5 7 29.91 1013 10 16.0934 0 0
11:35 pm 23:35 Clear 73 22.7 69 20.5 87 87 ENE 6 9 29.91 1013 10 16.0934 0 0
11:55 pm 23:55 Clear 73 22.6 69 20.5 88 88 NE 5 7 29.91 1013 10 16.0934 0 0

Powered by AerisWeather